Weather History for KT65 - February, 2013

Change the Weather History Date:

Tuesday, February 26, 2013

  Actual Average (KMFE) Record (KMFE)
Temperature  
Mean Temperature 60 °F 67 °F  
Max Temperature 76 °F 77 °F 94 °F (1944)
Min Temperature 45 °F 56 °F 31 °F (1897)
Degree Days  
Heating Degree Days 4 2  
Month to date heating degree days 102  
Since 1 July heating degree days 529  
Cooling Degree Days 0 4  
Month to date cooling degree days 86  
Year to date cooling degree days 148  
Growing Degree Days 10 (Base 50)    
Moisture  
Dew Point 25 °F    
Average Humidity 29    
Maximum Humidity 64    
Minimum Humidity 10    
Precipitation  
Precipitation 0.00 in 0.04 in 1.04 in (1973)
Month to date precipitation 1.04  
Year to date precipitation 2.09  
Sea Level Pressure  
Sea Level Pressure 29.95 in    
Wind  
Wind Speed 6 mph (WNW)    
Max Wind Speed 14 mph    
Max Gust Speed 21 mph    
Visibility 10 miles    
Events      
T = Trace of Precipitation, MM = Missing Value Source: NWS Daily Summary

Daily Weather History Graph

Daily Weather History Graph

Search for Another Location

Airport or City:

Trip Planner

Search our weather history database for the weather conditions in past years. The results will help you decide how hot, cold, wet, or windy it might be!

Date:

Astronomy

Feb. 26, 2013 Rise Set
Actual Time 6:57 AM CST 6:31 PM CST
Civil Twilight 6:34 AM CST 6:55 PM CST
Nautical Twilight 6:07 AM CST 7:21 PM CST
Astronomical Twilight 5:41 AM CST 7:48 PM CST
Moon 7:36 PM CST (2/26) 7:11 AM CST (2/26)
Length of Visible Light 12h 20m
Length of Day
11h 33m
Full, 99% of the Moon is Illuminated
Feb 26
Full
Mar 4
Last Quarter
Mar 11
New
Mar 19
First Quarter
Mar 27
Full

Hourly Weather History & Observations

Time (CST) Temp. Windchill Dew Point Humidity Pressure Visibility Wind Dir Wind Speed Gust Speed Precip Events Conditions
12:15 AM 54.9 °F - 21.4 °F 27% 29.92 in 10.0 mi NW 5.8 mph - N/A   Clear
12:35 AM 56.1 °F - 21.6 °F 26% 29.90 in 10.0 mi North 12.7 mph - N/A   Clear
12:55 AM 56.8 °F - 20.7 °F 25% 29.89 in 10.0 mi North 12.7 mph 16.1 mph N/A   Clear
1:15 AM 58.1 °F - 20.1 °F 23% 29.90 in 10.0 mi North 12.7 mph 20.7 mph N/A   Clear
1:35 AM 57.2 °F - 20.3 °F 24% 29.92 in 10.0 mi NNW 9.2 mph - N/A   Clear
1:55 AM 56.3 °F - 20.7 °F 25% 29.93 in 10.0 mi NNW 6.9 mph - N/A   Clear
2:15 AM 54.0 °F - 21.0 °F 28% 29.94 in 10.0 mi NNW 4.6 mph - N/A   Clear
2:35 AM 50.7 °F - 21.2 °F 31% 29.95 in 10.0 mi NW 4.6 mph - N/A   Clear
2:55 AM 53.4 °F - 21.2 °F 28% 29.96 in 10.0 mi NNW 6.9 mph - N/A   Clear
3:15 AM 55.4 °F - 21.2 °F 26% 29.96 in 10.0 mi NNW 10.4 mph 17.3 mph N/A   Clear
3:35 AM 52.7 °F - 21.4 °F 29% 29.96 in 10.0 mi NW 4.6 mph - N/A   Clear
3:55 AM 51.1 °F - 22.1 °F 32% 29.97 in 10.0 mi NW 4.6 mph - N/A   Clear
4:15 AM 50.4 °F - 21.7 °F 33% 29.96 in 10.0 mi NW 5.8 mph - N/A   Clear
4:35 AM 48.9 °F - 22.5 °F 35% 29.97 in 10.0 mi Calm Calm - N/A   Clear
4:55 AM 48.0 °F - 22.1 °F 36% 29.97 in 10.0 mi WNW 4.6 mph - N/A   Clear
5:15 AM 48.6 °F - 22.1 °F 35% 29.98 in 10.0 mi Calm Calm - N/A   Clear
5:35 AM 47.3 °F - 23.7 °F 40% 29.99 in 10.0 mi WSW 3.5 mph - N/A   Clear
5:55 AM 47.5 °F - 24.1 °F 40% 29.99 in 10.0 mi Calm Calm - N/A   Clear
6:15 AM 48.2 °F - 23.9 °F 39% 30.00 in 10.0 mi Calm Calm - N/A   Clear
6:35 AM 46.6 °F - 23.9 °F 41% 30.00 in 10.0 mi Calm Calm - N/A   Clear
6:55 AM 45.7 °F 43.4 °F 27.0 °F 48% 30.01 in 10.0 mi NW 4.6 mph - N/A   Clear
7:15 AM 45.1 °F - 25.7 °F 47% 30.02 in 10.0 mi Calm Calm - N/A   Clear
7:35 AM 46.0 °F 44.8 °F 26.2 °F 46% 30.02 in 10.0 mi West 3.5 mph - N/A   Clear
7:55 AM 51.8 °F - 25.7 °F 36% 30.02 in 10.0 mi West 3.5 mph - N/A   Clear
8:15 AM 54.5 °F - 23.5 °F 30% 30.04 in 10.0 mi WNW 3.5 mph - N/A   Clear
8:35 AM 56.7 °F - 23.2 °F 27% 30.04 in 10.0 mi NW 6.9 mph - N/A   Clear
8:55 AM 58.1 °F - 22.8 °F 26% 30.05 in 10.0 mi NW 8.1 mph - N/A   Clear
9:15 AM 59.0 °F - 22.6 °F 25% 30.05 in 10.0 mi North 6.9 mph - N/A   Clear
9:35 AM 60.6 °F - 22.6 °F 23% 30.05 in 10.0 mi NNW 8.1 mph - N/A   Clear
9:55 AM 61.7 °F - 22.3 °F 22% 30.04 in 10.0 mi NNW 8.1 mph - N/A   Clear
10:15 AM 62.6 °F - 22.8 °F 22% 30.04 in 10.0 mi NW 8.1 mph - N/A   Clear
10:35 AM 64.0 °F - 21.9 °F 20% 30.04 in 10.0 mi NNW 8.1 mph - N/A   Clear
10:55 AM 64.9 °F - 21.6 °F 19% 30.03 in 10.0 mi NNW 5.8 mph - N/A   Clear
11:15 AM 66.7 °F - 21.4 °F 18% 30.03 in 10.0 mi North 5.8 mph - N/A   Clear
11:35 AM 68.0 °F - 20.8 °F 17% 30.02 in 10.0 mi NNW 9.2 mph - N/A   Clear
11:55 AM 69.1 °F - 20.3 °F 16% 30.01 in 10.0 mi NNW 9.2 mph - N/A   Clear
12:15 PM 70.3 °F - 19.9 °F 15% 30.00 in 10.0 mi NNW 4.6 mph - N/A   Clear
12:35 PM 71.2 °F - 20.1 °F 14% 29.98 in 10.0 mi West 4.6 mph - N/A   Clear
12:55 PM 72.1 °F - 19.9 °F 14% 29.97 in 10.0 mi North 5.8 mph - N/A   Clear
1:15 PM 71.8 °F - 19.4 °F 14% 29.96 in 10.0 mi NNW 5.8 mph - N/A   Clear
1:35 PM 73.2 °F - 19.0 °F 13% 29.95 in 10.0 mi Calm Calm - N/A   Clear
1:55 PM 72.5 °F - 18.5 °F 13% 29.93 in 10.0 mi Calm Calm - N/A   Clear
2:15 PM 75.6 °F - 18.0 °F 11% 29.92 in 10.0 mi Calm Calm - N/A   Clear
2:35 PM 75.7 °F - 17.6 °F 11% 29.91 in 10.0 mi SSE 5.8 mph - N/A   Clear
2:55 PM 75.9 °F - 17.4 °F 11% 29.90 in 10.0 mi SSE 4.6 mph - N/A   Clear
3:15 PM 76.5 °F - 17.4 °F 11% 29.89 in 10.0 mi Calm Calm - N/A   Clear
3:35 PM 76.3 °F - 16.9 °F 11% 29.89 in 10.0 mi Calm Calm - N/A   Clear
3:55 PM 76.1 °F - 17.1 °F 11% 29.88 in 10.0 mi Calm Calm - N/A   Clear
4:15 PM 76.3 °F - 16.3 °F 10% 29.88 in 10.0 mi Calm Calm - N/A   Clear
4:35 PM 75.6 °F - 17.1 °F 11% 29.86 in 10.0 mi SE 5.8 mph - N/A   Clear
4:55 PM 74.5 °F - 16.3 °F 11% 29.88 in 10.0 mi SSE 4.6 mph - N/A   Clear
5:15 PM 74.8 °F - 16.3 °F 11% 29.88 in 10.0 mi SSE 3.5 mph - N/A   Clear
5:35 PM 74.3 °F - 17.4 °F 12% 29.88 in 10.0 mi SSE 6.9 mph - N/A   Clear
5:55 PM 73.2 °F - 17.4 °F 12% 29.89 in 10.0 mi SSE 4.6 mph - N/A   Clear
6:15 PM 70.3 °F - 29.1 °F 22% 29.89 in 10.0 mi SSE 10.4 mph 16.1 mph N/A   Clear
6:35 PM 68.4 °F - 29.1 °F 23% 29.89 in 10.0 mi SSE 13.8 mph 19.6 mph N/A   Clear
6:55 PM 66.4 °F - 30.6 °F 26% 29.91 in 10.0 mi SSE 12.7 mph 19.6 mph N/A   Clear
7:15 PM 64.9 °F - 31.6 °F 29% 29.91 in 10.0 mi SE 8.1 mph - N/A   Clear
7:35 PM 63.5 °F - 32.0 °F 31% 29.92 in 10.0 mi SE 9.2 mph - N/A   Clear
7:55 PM 62.1 °F - 32.2 °F 33% 29.93 in 10.0 mi SSE 8.1 mph - N/A   Clear
8:15 PM 60.8 °F - 32.9 °F 35% 29.93 in 10.0 mi SSE 8.1 mph - N/A   Clear
8:35 PM 59.9 °F - 34.9 °F 39% 29.95 in 10.0 mi SE 8.1 mph - N/A   Clear
8:55 PM 59.0 °F - 36.7 °F 43% 29.95 in 10.0 mi SSE 6.9 mph - N/A   Clear
9:15 PM 58.3 °F - 38.3 °F 47% 29.95 in 10.0 mi South 9.2 mph - N/A   Clear
9:35 PM 57.6 °F - 39.0 °F 50% 29.95 in 10.0 mi SSE 8.1 mph - N/A   Clear
9:55 PM 57.0 °F - 39.2 °F 51% 29.94 in 10.0 mi SSE 8.1 mph - N/A   Clear
10:15 PM 55.6 °F - 39.2 °F 54% 29.96 in 10.0 mi South 6.9 mph - N/A   Clear
10:35 PM 55.4 °F - 39.9 °F 56% 29.95 in 10.0 mi SSE 5.8 mph - N/A   Clear
10:55 PM 55.0 °F - 40.1 °F 57% 29.94 in 10.0 mi South 6.9 mph - N/A   Clear
11:15 PM 54.5 °F - 40.6 °F 60% 29.93 in 10.0 mi South 6.9 mph - N/A   Clear
11:35 PM 54.1 °F - 41.0 °F 61% 29.92 in 10.0 mi SSE 5.8 mph - N/A   Clear
11:55 PM 53.6 °F - 41.5 °F 64% 29.91 in 10.0 mi SSE 5.8 mph - N/A   Clear